Simultaneous Nadir Overpasses (SNOs) Predictions

Prediction of SNOs between GOES-14 and NPP Satellite Orbit:

Table of predicted SNOs for the next 14.0 days since TLE Epoch: 5/13/2023
Index Date Time (GOES-14) GOES-14 Lat,Lon NPP Lat,Lon Distance(km) Time Diff (sec)
1 05/13/2023 08:59:57 0.13,-108.43 1.08,-112.67 483.13 80
2 05/14/2023 08:38:32 0.14,-108.44 0.08,-108.14 34.22 80
3 05/16/2023 20:41:42 -0.13,-108.43 -0.22,-108.92 54.92 80
4 05/17/2023 20:25:37 -0.14,-108.45 0.78,-104.38 463.41 80
5 05/19/2023 08:47:24 0.11,-108.50 0.37,-109.66 131.86 80
6 05/20/2023 08:25:59 0.13,-108.51 -0.64,-105.13 385.46 80
7 05/21/2023 20:47:54 -0.10,-108.48 -0.55,-110.43 223.04 80
8 05/22/2023 20:31:49 -0.12,-108.49 0.46,-105.90 295.15 80
9 05/24/2023 08:53:36 0.09,-108.56 0.68,-111.18 298.65 80
10 05/25/2023 08:32:10 0.11,-108.56 -0.33,-106.65 218.87 80
11 05/26/2023 20:54:06 -0.08,-108.52 -0.83,-111.95 390.93 80
